Tracking 31027 objects as of 19-Jul-2025
HD Live streaming from Space Station
objects crossing your sky now

ONEWEB-0178

Track ONEWEB-0178 now!
10-day predictions
ONEWEB-0178 is classified as:


NORAD ID: 48075
Int'l Code: 2021-025AK
Perigee: 1,215.4 km
Apogee: 1,218.4 km
Inclination: 87.9 °
Period: 109.6 minutes
Semi major axis: 7587 km
RCS: Unknown
Launch date: March 25, 2021
Source: United States (US)
Launch site: VOSTOCHNY COSMODROME (VOSTO)
Your satellite tracking list
SUPERVIEW-1 03
Track 1 satellite(s)




NASA's NSSDC Master Catalog

Two Line Element Set (TLE):
1 48075U 21025AK  25199.45874190 -.00000146  00000-0 -43395-3 0  9998
2 48075  87.8961  26.5603 0001954  80.1613 279.9737 13.13470068209913
Source of the keplerian elements: AFSPC